Weather History for KOXC - August, 2013

Change the Weather History Date:

Saturday, August 3, 2013

  Actual Average Record
Temperature  
Mean Temperature 70 °F -  
Max Temperature 75 °F 77 °F 93 °F (2006)
Min Temperature 64 °F 59 °F 53 °F (1998)
Cooling Degree Days 4    
Growing Degree Days 20 (Base 50)    
Moisture  
Dew Point 62 °F    
Average Humidity 78    
Maximum Humidity 88    
Minimum Humidity 69    
Precipitation  
Precipitation 0.00 in - - ()
Sea Level Pressure  
Sea Level Pressure 29.90 in    
Wind  
Wind Speed 6 mph (West)    
Max Wind Speed 9 mph    
Max Gust Speed -    
Visibility 8 miles    
Events Rain    
Averages and records for this station are not official NWS values.
T = Trace of Precipitation, MM = Missing Value Source: NWS Daily Summary

Daily Weather History Graph

Daily Weather History Graph

Search for Another Location

Airport or City:

Trip Planner

Search our weather history database for the weather conditions in past years. The results will help you decide how hot, cold, wet, or windy it might be!

Date:

Astronomy

Aug. 03, 2013 Rise Set
Actual Time 5:49 AM EDT 8:07 PM EDT
Civil Twilight 5:18 AM EDT 8:38 PM EDT
Nautical Twilight 4:40 AM EDT 9:16 PM EDT
Astronomical Twilight 3:57 AM EDT 9:58 PM EDT
Moon 2:56 AM EDT (8/3) 5:48 PM EDT (8/3)
Length of Visible Light 15h 19m
Length of Day
14h 17m
Waning Crescent, 9% of the Moon is Illuminated
Aug 3
Waning Crescent
Aug 6
New
Aug 14
First Quarter
Aug 20
Full
Aug 28
Last Quarter

Hourly Weather History & Observations

Time (EDT) Temp. Dew Point Humidity Pressure Visibility Wind Dir Wind Speed Gust Speed Precip Events Conditions
5:45 AM 64.4 °F 55.4 °F 73% 29.91 in 7.0 mi West 3.5 mph - N/A   Overcast
6:45 AM 64.4 °F 57.2 °F 77% 29.91 in 7.0 mi West 5.8 mph - N/A   Mostly Cloudy
7:55 AM 64.4 °F 59.0 °F 83% 29.93 in 7.0 mi West 9.2 mph - N/A   Mostly Cloudy
8:45 AM 64.4 °F 60.8 °F 88% 29.92 in 6.0 mi West 9.2 mph - N/A Rain Light Rain
9:45 AM 64.4 °F 60.8 °F 88% 29.91 in 5.0 mi West 8.1 mph - N/A Rain Light Rain Showers
10:55 AM 66.2 °F 62.6 °F 88% 29.91 in 7.0 mi West 5.8 mph - N/A   Overcast
11:30 AM 66.2 °F 62.6 °F 88% 29.91 in 5.0 mi West 5.8 mph - N/A   Mostly Cloudy
11:55 AM 68.0 °F 62.6 °F 83% 29.91 in 7.0 mi West 5.8 mph - N/A   Overcast
12:10 PM 68.0 °F 62.6 °F 83% 29.92 in 7.0 mi West 5.8 mph - N/A   Overcast
12:45 PM 69.8 °F 62.6 °F 78% 29.91 in 7.0 mi West 5.8 mph - N/A   Overcast
1:20 PM 69.8 °F 62.6 °F 78% 29.90 in 10.0 mi West 5.8 mph - N/A   Scattered Clouds
1:50 PM 69.8 °F 62.6 °F 78% 29.90 in 10.0 mi West 5.8 mph - N/A   Mostly Cloudy
2:15 PM 71.6 °F 64.4 °F 78% 29.90 in 10.0 mi West 5.8 mph - N/A   Mostly Cloudy
2:46 PM 73.4 °F 62.6 °F 69% 29.90 in 10.0 mi West 5.8 mph - N/A   Mostly Cloudy
3:45 PM 75.2 °F 64.4 °F 69% 29.89 in 10.0 mi SSW 6.9 mph - N/A   Mostly Cloudy
4:45 PM 73.4 °F 62.6 °F 69% 29.88 in 10.0 mi SSW 6.9 mph - N/A   Mostly Cloudy
5:45 PM 75.2 °F 64.4 °F 69% 29.87 in 10.0 mi SW 9.2 mph - N/A   Mostly Cloudy
6:45 PM 73.4 °F 62.6 °F 69% 29.88 in 10.0 mi WSW 4.6 mph - N/A   Partly Cloudy
7:45 PM 71.6 °F 62.6 °F 73% 29.88 in 10.0 mi West 4.6 mph - N/A   Partly Cloudy
8:45 PM 69.8 °F 60.8 °F 73% 29.89 in 10.0 mi Calm Calm - N/A   Partly Cloudy